EW7518 Weather Reports


time (UTC)temp
C
wind
direction
speed
KPH
gust
KPH
rain 1hr
cm
rain 24hr
cm
rain mn
cm
humidity
%
barometer
mb
20181219163212 13 261 0.0 0.0 0.00 0.33 0.13 80 1023.0
20181219162708 13 269 0.0 0.0 0.00 0.33 0.13 80 1023.0
20181219162210 13 267 0.0 0.0 0.00 0.33 0.13 80 1023.0
20181219161708 13 258 0.0 0.0 0.00 0.33 0.13 80 1023.0
20181219161209 13 259 0.0 0.0 0.00 0.33 0.13 79 1023.0
20181219160707 13 267 0.0 0.0 0.00 0.33 0.13 79 1023.0
20181219160212 13 263 0.0 0.0 0.00 0.33 0.13 79 1022.9
20181219155708 13 276 0.0 0.0 0.00 0.33 0.13 79 1022.9
20181219155209 13 273 0.0 0.0 0.00 0.33 0.13 78 1022.9
20181219154708 13 273 0.0 0.0 0.00 0.33 0.13 77 1022.9
20181219154211 13 288 0.0 0.0 0.00 0.33 0.13 77 1022.9
20181219153708 13 263 0.0 0.0 0.00 0.33 0.13 76 1022.9
20181219153209 13 269 0.0 0.0 0.00 0.33 0.13 76 1023.0
20181219152718 13 242 0.0 0.0 0.00 0.33 0.13 77 1023.0
20181219152210 13 277 0.0 0.0 0.00 0.33 0.13 76 1023.0
20181219151708 13 264 0.0 0.0 0.00 0.33 0.13 76 1023.1
20181219151211 13 262 0.0 0.0 0.00 0.33 0.13 75 1023.1
20181219150707 13 276 0.0 0.0 0.00 0.33 0.13 76 1023.1
20181219150210 14 259 0.0 0.0 0.00 0.33 0.13 75 1023.0
20181219145707 14 271 0.0 0.0 0.00 0.33 0.13 75 1023.0
20181219145209 14 262 0.0 0.0 0.00 0.33 0.13 74 1023.0
20181219144708 14 285 0.0 0.0 0.00 0.33 0.13 73 1023.1
20181219144210 14 305 0.0 0.0 0.00 0.33 0.13 73 1023.1
20181219143708 14 255 0.0 0.0 0.00 0.33 0.13 72 1023.1
20181219143213 14 267 0.0 0.0 0.00 0.33 0.13 71 1023.1
20181219142707 14 315 0.0 0.0 0.00 0.33 0.13 72 1023.1
20181219142209 14 311 0.0 0.0 0.00 0.33 0.13 72 1023.1
20181219141713 14 301 0.0 6.4 0.00 0.33 0.13 70 1023.1
20181219141209 14 311 0.0 6.4 0.00 0.33 0.13 71 1023.1
20181219140707 14 288 0.0 6.4 0.00 0.33 0.13 73 1023.1
20181219140213 14 336 0.0 6.4 0.00 0.33 0.13 71 1023.3
20181219135708 14 324 0.0 6.4 0.00 0.33 0.13 70 1023.3
20181219135209 14 312 0.0 6.4 0.00 0.33 0.13 70 1023.3
20181219134709 14 286 0.0 6.4 0.00 0.33 0.13 70 1023.4
20181219134211 14 277 0.0 6.4 0.00 0.33 0.13 70 1023.4
20181219133707 15 330 0.0 8.0 0.00 0.33 0.13 70 1023.4
20181219133209 14 311 0.0 12.9 0.00 0.33 0.13 70 1023.5
20181219132708 14 317 1.6 12.9 0.00 0.33 0.13 70 1023.5
20181219132211 14 342 1.6 9.7 0.00 0.33 0.13 69 1023.5
20181219131710 15 333 0.0 9.7 0.00 0.33 0.13 68 1023.5
20181219131210 15 327 0.0 8.0 0.00 0.33 0.13 68 1023.5
20181219130707 15 340 0.0 0.0 0.00 0.33 0.13 69 1023.5
20181219130210 15 294 0.0 8.0 0.00 0.33 0.13 71 1023.8
20181219125708 15 350 0.0 8.0 0.00 0.33 0.13 71 1023.8
20181219125209 15 350 0.0 8.0 0.00 0.33 0.13 71 1023.8
20181219124708 14 298 0.0 6.4 0.00 0.33 0.13 71 1023.9
20181219124210 14 297 0.0 0.0 0.00 0.33 0.13 74 1023.9
20181219123708 14 281 0.0 0.0 0.00 0.33 0.13 72 1023.9
20181219123210 14 294 0.0 0.0 0.00 0.33 0.13 73 1024.1
20181219122707 14 355 0.0 0.0 0.00 0.33 0.13 73 1024.1
20181219122210 14 345 0.0 0.0 0.00 0.33 0.13 74 1024.1
20181219121710 14 346 0.0 0.0 0.00 0.33 0.13 73 1024.5
20181219121210 14 297 0.0 0.0 0.00 0.33 0.13 73 1024.5
20181219120707 14 329 0.0 0.0 0.00 0.33 0.13 73 1024.5
20181219120210 13 336 0.0 0.0 0.00 0.33 0.13 75 1024.6
20181219115708 13 313 0.0 0.0 0.00 0.33 0.13 72 1024.6
20181219115210 13 344 0.0 0.0 0.00 0.33 0.13 74 1024.6
20181219114708 13 332 0.0 0.0 0.00 0.33 0.13 73 1024.9
20181219114210 13 330 0.0 0.0 0.00 0.33 0.13 77 1024.9
20181219113707 13 321 0.0 0.0 0.00 0.33 0.13 76 1024.9
20181219113210 13 318 0.0 0.0 0.00 0.33 0.13 78 1025.0
20181219112707 13 285 0.0 0.0 0.00 0.33 0.13 78 1025.0
20181219112210 13 24 0.0 1.6 0.00 0.33 0.13 76 1025.0
20181219111710 13 295 0.0 1.6 0.00 0.33 0.13 79 1025.0
20181219111210 13 284 0.0 1.6 0.00 0.33 0.13 79 1025.0
20181219110708 13 346 0.0 0.0 0.00 0.33 0.13 79 1025.0
20181219110209 13 243 0.0 0.0 0.00 0.33 0.13 80 1025.2
20181219105708 12 292 0.0 0.0 0.00 0.33 0.13 82 1025.2
20181219105213 12 275 0.0 0.0 0.00 0.33 0.13 83 1025.2
20181219104708 12 275 0.0 0.0 0.00 0.33 0.13 83 1025.3
20181219104210 12 254 0.0 0.0 0.00 0.33 0.13 84 1025.3
20181219103708 12 286 0.0 0.0 0.00 0.33 0.13 84 1025.3
20181219103209 12 323 0.0 0.0 0.00 0.33 0.13 84 1025.3
20181219102708 11 343 0.0 0.0 0.00 0.33 0.13 85 1025.3
20181219102210 11 324 0.0 0.0 0.00 0.33 0.13 85 1025.3
20181219101708 11 283 0.0 0.0 0.00 0.33 0.13 85 1025.3
20181219101211 11 277 0.0 0.0 0.00 0.33 0.13 85 1025.3
20181219100709 11 277 0.0 0.0 0.00 0.33 0.13 85 1025.3
20181219100210 10 326 0.0 0.0 0.00 0.33 0.13 85 1025.0
20181219095707 10 319 0.0 0.0 0.00 0.33 0.13 87 1025.0
20181219095210 10 319 0.0 0.0 0.00 0.33 0.13 88 1025.0
20181219094708 10 288 0.0 0.0 0.00 0.33 0.13 88 1024.8
20181219094210 9 288 0.0 0.0 0.00 0.33 0.13 89 1024.8
20181219093707 9 281 0.0 0.0 0.00 0.33 0.13 90 1024.8
20181219093221 8 287 0.0 0.0 0.00 0.33 0.13 91 1024.5
20181219092707 8 338 0.0 0.0 0.00 0.33 0.13 91 1024.5
20181219092209 8 330 0.0 0.0 0.00 0.33 0.13 91 1024.5
20181219091708 7 330 0.0 0.0 0.00 0.33 0.13 91 1024.0
20181219091210 7 336 0.0 0.0 0.00 0.33 0.13 91 1024.0
20181219090708 7 336 0.0 0.0 0.00 0.33 0.13 91 1024.0
20181219090212 7 336 0.0 0.0 0.00 0.33 0.13 91 1023.9
20181219085707 7 336 0.0 0.0 0.00 0.33 0.13 91 1023.9
20181219085209 7 336 0.0 0.0 0.00 0.33 0.13 91 1023.9
20181219084707 7 336 0.0 0.0 0.00 0.33 0.13 90 1023.5
20181219084210 7 336 0.0 0.0 0.00 0.33 0.13 90 1023.5
20181219083710 7 336 0.0 0.0 0.00 0.33 0.13 90 1023.5
20181218233722 11 284 0.0 9.7 0.05 0.15 0.15 94 1020.9
20181218233210 11 332 0.0 19.3 0.05 0.15 0.15 94 1020.9
20181218232708 11 328 1.6 22.5 0.05 0.15 0.15 94 1020.9
20181218232227 11 311 4.8 22.5 0.08 0.15 0.15 94 1020.9
20181218231725 12 323 4.8 17.7 0.08 0.15 0.15 93 1020.7
20181218231210 12 327 1.6 17.7 0.05 0.15 0.15 93 1020.7
20181218230707 12 321 1.6 9.7 0.05 0.15 0.15 93 1020.7
20181218230210 12 311 0.0 9.7 0.05 0.13 0.13 93 1020.5
20181218225708 13 325 0.0 0.0 0.05 0.13 0.13 94 1020.5
20181218225227 13 296 0.0 4.8 0.08 0.13 0.13 94 1020.5
20181218224715 13 296 0.0 4.8 0.08 0.13 0.13 94 1020.5
20181218224242 13 279 0.0 11.3 0.08 0.13 0.13 94 1020.5
20181218223723 14 271 1.6 11.3 0.05 0.10 0.10 94 1020.5
20181218223209 14 232 1.6 11.3 0.05 0.10 0.10 95 1020.4
20181218222758 14 224 0.0 3.2 0.08 0.10 0.10 95 1020.4
20181218222212 14 215 0.0 0.0 0.05 0.08 0.08 95 1020.4
20181218221713 14 248 0.0 0.0 0.05 0.08 0.08 95 1020.5
20181218221209 14 244 0.0 0.0 0.08 0.08 0.08 95 1020.5
20181218220712 14 127 0.0 0.0 0.08 0.08 0.08 95 1020.5
20181218220210 14 222 0.0 0.0 0.08 0.05 0.05 95 1020.5
20181218215708 14 200 0.0 0.0 0.05 0.05 0.05 95 1020.5
20181218215208 14 75 0.0 4.8 0.05 0.05 0.05 95 1020.5
20181218214712 14 271 0.0 4.8 0.05 0.05 0.05 95 1020.5
20181218214215 14 211 0.0 4.8 0.05 0.05 0.05 95 1020.5
20181218213707 14 200 0.0 9.7 0.05 0.05 0.05 95 1020.5
20181218213208 14 299 0.0 14.5 0.05 0.05 0.05 95 1020.3
20181218212707 14 194 0.0 14.5 0.03 0.03 0.03 95 1020.3
20181218212213 14 155 0.0 14.5 0.03 0.03 0.03 94 1020.3
20181218211708 14 180 0.0 9.7 0.03 0.03 0.00 94 1020.4
20181218211209 14 189 0.0 19.3 0.00 0.00 0.00 94 1020.4
20181218210707 14 169 1.6 19.3 0.00 0.00 0.00 94 1020.4
20181218210212 14 166 1.6 19.3 0.00 0.00 0.00 95 1020.3
20181218205708 14 202 0.0 11.3 0.00 0.00 0.00 95 1020.3
20181218205209 14 178 0.0 11.3 0.00 0.00 0.00 94 1020.3
20181218204709 14 170 0.0 0.0 0.00 0.00 0.00 94 1019.8
20181218204216 14 137 0.0 0.0 0.00 0.00 0.00 94 1019.8
20181218203707 14 202 0.0 3.2 0.00 0.00 0.00 94 1019.8
20181218203210 14 160 0.0 17.7 0.00 0.00 0.00 94 1020.4
20181218202707 14 149 1.6 17.7 0.00 0.00 0.00 94 1020.4
20181218202229 14 190 1.6 17.7 0.00 0.00 0.00 94 1020.4
20181218201709 14 186 0.0 1.6 0.00 0.00 0.00 94 1020.3
20181218201209 14 192 0.0 8.0 0.00 0.00 0.00 94 1020.3
20181218200708 14 146 0.0 14.5 0.00 0.00 0.00 94 1020.3
20181218200211 14 185 1.6 16.1 0.00 0.00 0.00 94 1020.3
20181218195707 14 196 1.6 16.1 0.00 0.00 0.00 94 1020.3
20181218195209 14 184 1.6 12.9 0.00 0.00 0.00 94 1020.3
20181218194707 13 219 1.6 16.1 0.00 0.00 0.00 94 1020.3
20181218194215 13 167 0.0 16.1 0.00 0.00 0.00 94 1020.3
20181218193708 13 139 1.6 11.3 0.00 0.00 0.00 94 1020.3
20181218193209 13 164 1.6 11.3 0.00 0.00 0.00 93 1020.3
20181218192707 13 188 1.6 11.3 0.00 0.00 0.00 93 1020.3
20181218192209 13 192 0.0 4.8 0.00 0.00 0.00 93 1020.3
20181218191707 13 191 0.0 11.3 0.00 0.00 0.00 93 1020.0
20181218191208 14 201 1.6 11.3 0.00 0.00 0.00 93 1020.0
20181218190707 14 138 1.6 12.9 0.00 0.00 0.00 92 1020.0
20181218190210 14 188 0.0 12.9 0.00 0.00 0.00 92 1020.3
20181218185708 14 128 0.0 12.9 0.00 0.00 0.00 92 1020.3
20181218185210 13 177 0.0 0.0 0.00 0.00 0.00 92 1020.3
20181218184709 13 171 0.0 0.0 0.00 0.00 0.00 92 1020.0
20181218184208 13 144 0.0 0.0 0.00 0.00 0.00 92 1020.0
20181218183708 13 138 0.0 0.0 0.00 0.00 0.00 91 1020.0
20181218183210 13 148 0.0 0.0 0.00 0.00 0.00 91 1019.7
20181218182707 13 88 0.0 0.0 0.00 0.00 0.00 90 1019.7
20181218182210 13 109 0.0 0.0 0.00 0.00 0.00 90 1019.7
20181218181708 13 124 0.0 0.0 0.00 0.00 0.00 90 1019.8
20181218181210 13 76 0.0 0.0 0.00 0.00 0.00 90 1019.8
20181218180712 13 136 0.0 0.0 0.00 0.00 0.00 90 1019.8
20181218180210 13 163 0.0 0.0 0.00 0.00 0.00 90 1019.7
20181218175708 13 149 0.0 3.2 0.00 0.00 0.00 89 1019.7
20181218175209 13 131 0.0 3.2 0.00 0.00 0.00 89 1019.7
20181218174709 13 119 0.0 3.2 0.00 0.00 0.00 89 1019.8
20181218174209 13 144 0.0 0.0 0.00 0.00 0.00 89 1019.8
20181218173707 13 122 0.0 0.0 0.00 0.00 0.00 89 1019.8
20181218173209 13 105 0.0 0.0 0.00 0.00 0.00 89 1019.6
20181218172712 13 136 0.0 0.0 0.00 0.00 0.00 88 1019.6
20181218172212 13 112 0.0 4.8 0.00 0.00 0.00 88 1019.6
20181218171715 14 123 0.0 4.8 0.00 0.00 0.00 88 1019.6
20181218171209 14 155 0.0 4.8 0.00 0.00 0.00 87 1019.6
20181218170707 14 119 0.0 0.0 0.00 0.00 0.00 87 1019.6
20181218170210 14 131 0.0 4.8 0.00 0.00 0.00 87 1019.7
20181218165709 14 166 0.0 8.0 0.00 0.00 0.00 87 1019.7
20181218165210 14 142 0.0 8.0 0.00 0.00 0.00 86 1019.7
20181218164709 14 121 0.0 8.0 0.00 0.00 0.00 86 1019.5
20181218164215 14 175 0.0 0.0 0.00 0.00 0.00 86 1019.5
20181218163707 14 175 0.0 0.0 0.00 0.00 0.00 85 1019.5